Printer-friendly version

IAU Minor Planet Center

Minor Planet Center

MPEC 2005-W95 : 2005 VJ119

The following Minor Planet Electronic Circular may be linked-to from your own Web pages, but must not otherwise be redistributed electronically.


Read MPEC 2005-W94 Read MPEC 2005-W96


M.P.E.C. 2005-W95                                Issued 2005 Nov. 30, 17:07 UT

     The Minor Planet Electronic Circulars contain information on unusual
         minor planets and routine data on comets.  They are published
   on behalf of Commission 20 of the International Astronomical Union by the
          Minor Planet Center, Smithsonian Astrophysical Observatory,
                          Cambridge, MA 02138, U.S.A.

                  Supported in part by the Brinson Foundation
                  Supported in part by the TABASGO Foundation
             Prepared using the Tamkin Foundation Computer Network

                              MPC@CFA.HARVARD.EDU
          URL http://cfa-www.harvard.edu/iau/mpc.html  ISSN 1523-6714

                                  2005 VJ119

Observations:
     K05VB9J* C2005 11 07.61209910 21 45.527+06 42 13.16         21.2 R EW095568
     K05VB9J  C2005 11 07.62115810 21 45.629+06 42 12.12         21.6 R EW095568
     K05VB9J  C2005 11 07.63022010 21 45.729+06 42 11.41         21.7 R EW095568
     K05VB9J  C2005 11 11.55301710 22 28.706+06 36 12.98         21.8 R EW095568
     K05VB9J  C2005 11 11.57458910 22 28.926+06 36 11.09         21.7 R EW095568
     K05VB9J  C2005 11 13.55989210 22 49.067+06 33 18.12         21.8 R EW095568
     K05VB9J  C2005 11 13.57645910 22 49.226+06 33 16.60         21.7 R EW095568
     K05VB9J  C2005 11 13.59169410 22 49.379+06 33 15.36         21.8 R EW095568
     K05VB9J  C2005 11 26.63995010 24 33.753+06 16 45.33         21.7 R EW095568
     K05VB9J  C2005 11 26.64425710 24 33.781+06 16 45.03         21.5 R EW095568

Observer details:
568 Mauna Kea.  Observers F. Bernardi, A. Boattini.  Measurers F. Bernardi,
    D. J. Tholen.  2.24-m University of Hawaii reflector + CCD, 3.6-m
    Canada-France-Hawaii Telescope + CCD.

Orbital elements:
2005 VJ119
Epoch 2005 Nov. 6.0 TT = JDT 2453680.5                  MPC
M 356.96621              (2000.0)            P               Q
n   0.00477706     Peri.  227.92686     -0.97874731     -0.17750460
a  34.9163624      Node   301.60619     +0.20488425     -0.86772510
e   0.6547562      Incl.    6.92547     -0.00872569     -0.46426854
P 206              H   10.7           G   0.15
From 10 observations 2005 Nov. 7-26.

Ephemeris:
2005 VJ119               a,e,i = 34.92, 0.65, 7                  q = 12.055
Date    TT    R. A. (2000) Decl.     Delta      r     Elong.  Phase     V
2005 11 26    10 24.50   +06 17.5   12.295   12.303    88.2     4.6    22.0
2005 12 06    10 25.29   +06 07.8   12.118   12.295    98.0     4.6    22.0
2005 12 16    10 25.56   +06 01.1   11.946   12.287   108.1     4.4    21.9
2005 12 26    10 25.32   +05 57.4   11.783   12.280   118.3     4.0    21.9
2006 01 05    10 24.59   +05 56.7   11.635   12.272   128.6     3.6    21.8
2006 01 15    10 23.40   +05 59.0   11.505   12.265   139.0     3.0    21.8
2006 01 25    10 21.83   +06 04.0   11.399   12.258   149.5     2.3    21.7
2006 02 04    10 19.94   +06 11.1   11.319   12.250   160.0     1.6    21.6
2006 02 14    10 17.86   +06 20.1   11.269   12.243   170.2     0.8    21.5
2006 02 24    10 15.69   +06 30.1   11.249   12.236   175.7     0.4    21.5
2006 03 06    10 13.54   +06 40.6   11.261   12.230   167.1     1.0    21.6
2006 03 16    10 11.55   +06 51.0   11.302   12.223   156.9     1.8    21.6
2006 03 26    10 09.80   +07 00.5   11.372   12.216   146.6     2.6    21.7
2006 04 05    10 08.39   +07 08.6   11.466   12.210   136.4     3.2    21.8
2006 04 15    10 07.40   +07 14.9   11.582   12.204   126.4     3.8    21.8
2006 04 25    10 06.88   +07 18.9   11.716   12.198   116.5     4.2    21.9
2006 05 05    10 06.84   +07 20.5   11.862   12.192   106.8     4.5    21.9
2006 05 15    10 07.32   +07 19.3   12.017   12.186    97.2     4.7    21.9
2006 05 25    10 08.29   +07 15.5   12.175   12.180    87.9     4.8    22.0
2006 06 04    10 09.74   +07 08.8   12.332   12.174    78.7     4.7    22.0
2006 06 14    10 11.63   +06 59.5   12.485   12.169    69.7     4.5    22.0
2006 06 24    10 13.94   +06 47.6   12.628   12.163    60.7     4.2    22.0
2006 07 04    10 16.61   +06 33.2   12.759   12.158    51.9     3.8    22.0
2006 07 14    10 19.59   +06 16.6   12.874   12.153    43.2     3.3    22.0
2006 07 24    10 22.83   +05 58.1   12.970   12.148    34.6     2.7    22.0

Brian G. Marsden             (C) Copyright 2005 MPC           M.P.E.C. 2005-W95

Read MPEC 2005-W94 Read MPEC 2005-W96


Our Web policy. Index to the CBAT/MPC/ICQ pages.


Valid HTML 4.01!